Theta_e
289 288 289 289 289 291 292 293 294 294 294 294 295 295 296 298 300 301 303 306 305 309 310 309 315 316 315 313 310 309 307 303 292 283 285 285 285 285 285 286 287 288 290
288 288 289 289 289 290 291 291 292 292 293 293 294 294 296 297 299 301 302 305 306 307 308 308 314 315 315 315 311 310 307 294 287 283 283 284 284 284 285 285 285 286 286
288 287 288 288 289 289 289 290 291 291 291 291 292 292 293 295 296 298 300 301 304 307 306 307 315 314 314 315 313 311 299 292 290 283 281 283 283 284 282 283 284 284 285
286 286 287 287 288 288 289 289 289 289 289 289 290 290 291 292 293 295 298 299 299 298 302 307 315 315 314 314 305 298 293 288 286 283 281 280 281 281 281 280 278 281 280
285 285 286 287 287 286 286 287 288 288 288 288 288 289 290 290 291 293 292 291 290 289 290 299 308 311 301 301 296 292 290 286 284 281 279 280 279 278 277 279 277 278 278
283 283 285 284 284 284 285 285 286 286 286 286 286 286 286 287 290 292 290 288 288 287 287 287 288 288 291 292 292 292 290 285 282 281 280 279 279 279 279 277 276 275 273
282 282 281 282 282 283 284 284 284 284 285 285 285 285 284 285 288 289 288 286 285 285 286 287 286 287 287 286 287 287 286 287 286 283 280 280 279 280 280 277 277 277 274
281 281 281 281 281 283 283 283 283 283 283 283 283 284 284 285 287 287 286 284 284 284 285 285 285 284 284 283 281 280 280 279 281 283 282 281 281 282 281 280 277 273 273
281 281 281 281 282 282 282 282 282 282 282 282 283 283 283 284 286 285 284 282 281 281 282 283 284 283 285 284 280 278 278 280 284 284 284 284 284 283 280 276 273 272 270
281 281 281 282 282 282 282 282 283 282 282 282 282 283 283 283 286 286 284 282 281 280 281 281 282 281 282 282 277 276 273 273 273 272 272 274 276 277 278 277 276 272 269
280 280 280 281 282 282 282 283 282 282 281 281 281 282 282 283 284 285 285 282 281 280 279 279 280 282 282 281 278 274 273 274 273 271 271 271 271 271 271 271 272 273 269
277 278 278 279 282 282 282 282 282 281 280 280 280 280 282 283 284 285 285 284 283 279 278 279 280 282 281 280 277 278 277 274 271 270 269 268 268 268 269 269 270 270 270
275 278 278 279 281 281 281 281 281 281 280 279 279 278 279 281 283 285 285 284 283 280 280 281 282 281 280 279 278 277 273 271 270 268 267 267 268 268 269 268 268 268 268
271 276 278 282 281 282 282 282 282 281 280 280 279 278 279 279 278 278 278 278 279 277 277 276 277 277 277 275 273 273 272 271 269 268 267 268 268 268 267 268 266 266 264
274 271 274 275 277 281 283 283 283 284 283 280 280 280 279 278 279 280 278 275 274 274 272 272 272 271 270 270 270 270 269 269 268 268 267 266 266 266 266 267 266 264 263
280 273 273 276 275 277 280 282 286 286 286 285 285 283 282 283 282 281 281 280 278 277 272 270 270 270 269 269 268 267 268 267 267 267 266 266 265 265 265 265 264 263 262
279 275 272 273 274 273 278 279 278 281 286 285 285 285 284 283 282 281 281 280 278 275 271 270 269 269 268 268 267 267 266 267 267 267 266 265 265 264 263 263 263 262 261
279 278 276 270 270 269 271 278 278 277 278 279 283 283 284 283 283 282 281 277 271 272 270 269 268 268 267 267 266 266 266 265 265 265 264 264 264 263 262 261 260 258 257
280 277 273 267 267 267 266 266 267 267 278 279 279 281 280 284 283 281 278 270 269 266 266 267 268 267 266 266 265 265 265 264 264 263 262 262 262 261 259 258 258 257 255
277 268 268 268 265 266 265 266 265 265 272 278 278 271 268 273 274 269 267 266 267 266 265 266 265 265 265 265 264 264 263 262 261 261 260 260 259 260 258 256 255 254 251
274 270 269 265 267 268 267 267 267 267 266 268 271 268 276 267 266 267 264 263 265 265 264 264 263 264 264 263 263 262 262 261 259 259 259 258 258 257 256 257 253 253 252
274 272 269 271 269 267 268 269 267 267 267 268 265 266 282 270 264 265 265 265 264 265 265 266 265 264 264 264 263 262 261 260 259 259 259 257 257 256 254 253 253 248 247
276 272 269 267 270 268 268 268 268 269 268 267 266 269 266 274 271 270 270 271 271 263 262 264 263 262 262 263 263 263 262 261 261 260 259 257 256 255 254 252 251 247 247
276 275 273 271 270 270 270 269 269 268 269 269 269 271 273 272 276 275 275 276 274 270 263 264 265 264 262 261 262 261 261 261 261 260 259 258 256 254 251 249 249 247 247
282 279 275 273 272 272 270 269 270 271 272 272 272 271 268 268 268 271 270 271 273 269 262 261 261 261 261 260 259 258 260 262 260 259 259 257 256 253 252 251 247 246 246
282 281 278 276 274 273 272 272 271 269 269 269 270 270 270 270 270 270 269 268 270 268 262 258 260 260 259 259 259 261 261 262 259 259 259 258 256 253 251 250 248 246 245
Wind_Speed
5 10 13 14 15 15 14 14 13 14 15 17 17 17 18 19 18 17 17 19 17 17 14 13 23 22 16 15 12 13 12 9 11 4 3 11 11 11 7 9 8 8 9
12 16 14 14 14 13 13 15 14 16 15 16 17 18 19 18 17 19 19 18 17 18 15 17 23 15 20 19 13 16 13 8 8 13 12 11 12 12 12 12 8 7 7
13 15 14 14 14 14 15 15 15 16 16 16 17 18 17 16 16 17 20 18 21 17 16 14 21 21 19 16 16 15 11 8 11 14 13 10 10 11 11 10 10 9 8
15 15 15 15 15 16 16 16 15 15 16 16 17 17 16 16 16 16 19 16 14 13 16 20 26 24 22 19 12 15 14 13 14 15 15 15 12 11 11 11 9 6 8
14 15 14 14 14 15 16 17 16 15 15 16 17 16 15 15 12 13 10 8 4 2 6 3 13 19 20 21 16 14 19 16 15 16 15 15 13 14 13 7 10 8 7
15 14 14 14 14 14 15 17 16 15 15 14 15 15 14 11 20 18 9 4 5 5 7 14 16 19 19 23 23 23 22 23 20 17 13 17 16 11 11 10 11 10 4
12 12 15 13 14 14 14 15 14 15 14 13 11 11 9 8 3 8 14 9 11 10 5 18 18 15 22 23 32 33 27 25 20 18 22 19 16 13 13 13 10 6 4
11 12 13 14 14 14 13 13 13 11 11 11 11 12 11 10 15 17 23 18 19 16 14 14 22 20 21 24 23 26 22 21 17 14 14 14 13 11 10 9 11 11 9
11 12 13 14 13 13 13 13 11 11 9 10 11 15 16 15 17 17 22 21 24 22 19 20 21 27 34 34 27 27 27 23 32 37 32 29 24 21 15 11 9 10 5
12 12 12 11 12 12 12 12 10 9 9 9 14 16 20 17 17 19 22 18 23 17 19 25 36 28 38 34 23 21 24 18 19 18 16 19 19 18 18 8 6 6 6
9 10 9 10 11 10 11 8 9 9 10 11 15 18 20 16 18 30 33 20 16 15 16 17 16 35 36 35 30 19 21 19 22 15 13 11 10 11 9 9 8 5 5
7 8 8 8 8 8 10 9 9 8 10 12 14 15 13 15 21 32 37 34 27 19 17 16 17 32 34 34 25 32 31 21 12 12 11 9 8 8 8 9 11 11 11
5 9 8 8 9 9 9 10 8 8 8 9 10 11 10 10 11 29 34 33 33 20 16 27 31 31 33 27 28 27 18 11 11 11 10 9 8 8 8 9 12 13 13
3 5 7 8 10 11 7 7 8 8 7 8 8 8 7 8 8 8 9 13 25 19 20 15 21 23 24 19 14 13 9 9 9 11 10 8 7 7 7 6 7 7 8
3 2 4 4 5 6 8 8 7 9 8 6 6 6 7 9 9 13 12 10 10 14 13 8 9 10 10 10 9 10 9 8 10 9 9 8 7 7 6 4 3 3 5
2 2 2 3 3 3 4 5 16 16 17 17 16 12 9 16 18 21 21 20 19 15 6 8 8 8 9 8 8 8 7 8 7 7 7 7 7 7 7 6 4 6 7
4 2 0 1 2 2 2 3 4 8 16 15 14 16 17 18 17 17 18 17 12 9 7 6 7 6 7 7 6 6 6 5 7 7 7 7 7 7 7 6 5 6 6
4 5 2 2 2 3 3 2 2 3 6 4 9 9 16 16 16 14 14 9 5 5 3 5 6 6 6 6 6 7 6 5 6 6 6 6 6 7 6 5 5 5 4
7 5 4 3 2 2 1 2 2 3 6 6 4 5 7 15 14 10 7 2 5 3 2 4 5 5 5 5 6 5 5 5 5 6 5 5 6 6 5 5 5 5 5
7 6 4 3 3 3 2 3 2 2 4 5 5 2 2 4 2 2 2 1 3 3 3 4 2 4 5 6 6 5 5 5 5 5 5 5 4 5 6 5 4 4 3
6 5 7 3 3 4 4 4 3 4 3 2 2 2 6 4 4 3 3 2 3 3 3 3 2 4 4 5 5 4 5 5 5 6 5 5 5 5 4 5 5 4 5
7 7 6 7 5 5 4 4 4 4 4 5 3 3 11 2 3 4 4 4 4 4 4 4 3 4 5 6 7 7 7 7 6 6 6 6 6 5 4 5 4 3 3
8 8 6 4 5 5 5 5 5 5 4 4 3 4 2 4 4 4 4 4 5 4 4 5 6 6 6 6 7 8 10 10 9 9 9 8 6 5 5 4 4 3 3
8 9 9 7 6 5 5 6 5 6 5 5 5 6 6 5 6 5 4 4 4 4 3 4 4 7 6 5 5 5 5 7 8 9 11 9 7 6 4 3 4 3 3
10 8 8 9 9 7 5 5 6 7 7 7 7 5 4 4 4 5 5 5 5 5 5 5 4 7 9 9 7 7 9 14 10 11 7 8 9 9 6 4 4 3 3
10 10 8 6 7 8 8 6 6 5 6 5 5 5 5 6 6 5 5 6 6 5 6 3 5 7 9 8 10 11 13 14 12 12 9 9 9 6 5 5 6 3 4
Wind_Direction
339 317 315 314 306 299 296 296 306 312 307 300 293 288 283 278 278 274 268 253 250 254 252 276 212 186 186 184 172 173 174 155 138 105 92 140 130 125 114 97 93 96 106
314 317 307 304 303 302 308 304 304 297 296 292 292 284 277 272 270 268 269 270 255 246 257 278 203 184 184 186 174 176 173 132 127 138 142 149 143 137 127 116 106 90 93
320 315 307 306 305 303 300 298 298 297 294 290 285 280 276 271 269 267 261 263 256 246 253 247 207 188 181 181 177 176 144 127 130 140 135 137 132 133 119 107 111 103 100
323 315 312 311 310 308 306 303 297 297 294 288 282 278 273 272 266 266 269 256 243 246 253 240 208 184 185 179 153 144 134 119 121 125 133 137 134 135 123 125 113 105 110
319 319 320 317 316 313 309 302 296 294 291 290 288 284 277 270 263 261 251 232 177 285 286 150 181 182 157 154 142 143 132 126 129 131 138 138 141 147 145 143 124 115 104
331 325 325 324 317 311 309 306 302 304 303 302 298 294 286 272 268 243 187 162 110 87 89 82 85 93 106 117 122 137 144 141 140 139 138 142 148 139 131 141 132 133 125
332 326 325 317 312 312 317 314 317 319 316 316 313 323 328 323 304 118 112 95 82 64 49 97 91 85 90 95 96 94 92 101 113 134 134 140 133 149 136 132 137 123 97
331 328 326 323 317 324 331 330 330 333 336 336 349 4 16 22 54 87 91 87 77 71 65 79 93 89 90 89 85 85 82 74 78 90 92 97 109 111 116 122 114 108 93
330 332 327 330 333 343 343 341 345 342 350 9 22 30 33 35 46 79 87 81 76 70 67 65 80 84 84 87 87 85 80 82 80 84 88 93 98 107 109 114 123 121 93
335 328 319 335 349 354 347 347 351 356 7 23 38 37 41 40 41 74 82 78 75 68 66 66 70 82 84 85 85 88 86 79 83 80 76 73 74 83 83 84 121 110 114
322 327 323 345 2 356 348 350 354 6 19 30 45 46 45 39 48 68 71 71 76 75 68 70 69 80 84 85 86 86 93 97 89 88 84 78 69 65 62 64 61 114 126
321 342 344 339 9 6 1 358 13 17 28 37 44 51 47 49 57 67 74 77 78 77 72 75 80 87 90 94 92 102 102 97 93 88 84 82 85 82 76 77 73 68 63
349 358 0 350 4 13 19 8 8 20 29 39 48 51 50 43 52 62 70 77 78 79 79 92 92 90 89 86 94 95 92 94 99 98 97 90 87 93 99 84 76 77 70
32 25 343 17 19 29 22 17 19 17 31 42 53 58 56 54 41 45 63 71 73 78 82 82 91 88 85 82 85 80 83 93 107 107 104 104 106 99 90 101 101 102 85
48 8 44 345 12 20 39 36 34 36 40 54 41 50 52 56 59 65 63 70 78 92 96 95 91 86 90 87 78 80 85 88 98 104 111 113 106 109 106 105 100 85 102
86 19 4 74 356 38 19 47 52 68 66 73 80 87 82 97 95 95 95 98 105 107 88 99 91 85 88 88 93 91 82 93 105 115 115 122 126 121 113 96 94 103 110
160 185 158 45 103 68 85 62 74 43 76 72 79 91 99 108 102 104 103 103 88 97 94 87 94 98 102 101 105 113 113 116 123 122 126 128 119 116 112 109 114 110 94
199 226 205 206 155 134 151 166 125 112 100 68 73 96 104 107 102 94 90 70 55 41 70 108 112 113 109 109 114 112 117 119 108 110 103 105 109 112 122 109 92 102 98
209 224 215 168 162 150 134 115 113 110 123 121 112 100 132 134 123 101 98 113 135 117 104 103 107 113 119 112 109 108 120 111 106 107 107 109 105 111 98 91 97 94 105
201 195 187 176 159 147 152 137 120 128 139 146 154 205 356 50 88 56 60 120 106 108 87 102 115 124 122 124 117 112 107 104 111 104 93 101 96 107 117 119 118 116 97
186 181 171 155 182 183 169 184 176 163 163 181 195 213 175 144 174 148 141 149 142 123 131 148 140 122 104 103 104 121 121 112 98 106 117 103 112 113 137 137 123 115 112
177 177 179 186 173 178 190 180 178 176 182 183 212 233 198 136 150 174 184 190 172 156 153 143 135 121 134 147 154 153 138 130 132 140 130 133 134 134 131 119 121 107 118
180 173 173 185 188 171 173 181 181 186 189 192 194 191 198 176 185 193 177 165 158 163 164 150 149 150 155 158 159 161 155 162 163 153 146 142 146 140 133 136 144 117 122
187 184 180 181 175 187 186 186 184 180 190 204 201 202 203 195 197 195 166 150 142 137 144 150 160 160 152 157 151 141 140 140 144 150 143 144 142 132 121 134 149 123 116
197 200 191 181 179 191 188 190 196 199 199 195 197 198 195 188 185 189 170 152 154 153 167 156 149 157 158 155 153 148 152 144 141 140 136 137 146 149 142 133 134 97 89
199 198 208 192 188 176 179 188 195 192 202 207 210 205 200 194 193 183 164 151 149 150 146 140 149 149 148 151 151 146 146 145 143 142 143 141 142 137 132 120 126 143 156